Year,Month,Day,Hour,Minute,Value (Times are PST for temperature in C)
2014,05,02,00,00,13.70
2014,05,02,00,01,13.60
2014,05,02,00,02,13.60
2014,05,02,00,03,13.50
2014,05,02,00,04,13.40
2014,05,02,00,05,13.40
2014,05,02,00,06,13.30
2014,05,02,00,07,13.30
2014,05,02,00,08,13.30
2014,05,02,00,09,13.20
2014,05,02,00,10,13.20
2014,05,02,00,11,13.20
2014,05,02,00,12,13.10
2014,05,02,00,13,13.10
2014,05,02,00,14,13.10
2014,05,02,00,15,13.10
2014,05,02,00,16,13.10
2014,05,02,00,17,13.00
2014,05,02,00,18,13.00
2014,05,02,00,19,13.00
2014,05,02,00,20,13.00
2014,05,02,00,21,13.00
2014,05,02,00,22,13.00
2014,05,02,00,23,13.00
2014,05,02,00,24,13.00
2014,05,02,00,25,13.00
2014,05,02,00,26,13.00
2014,05,02,00,27,13.00
2014,05,02,00,28,13.00
2014,05,02,00,29,13.00
2014,05,02,00,30,13.00
2014,05,02,00,31,12.90
2014,05,02,00,32,12.90
2014,05,02,00,33,12.90
2014,05,02,00,34,12.90
2014,05,02,00,35,12.90
2014,05,02,00,36,12.80
2014,05,02,00,37,12.80
2014,05,02,00,38,12.80
2014,05,02,00,39,12.80
2014,05,02,00,40,12.80
2014,05,02,00,41,12.80
2014,05,02,00,42,12.80
2014,05,02,00,43,12.80
2014,05,02,00,44,12.80
2014,05,02,00,45,12.80
2014,05,02,00,46,12.80
2014,05,02,00,47,12.80
2014,05,02,00,48,12.80
2014,05,02,00,49,12.80
2014,05,02,00,50,12.80
2014,05,02,00,51,12.80
2014,05,02,00,52,12.80
2014,05,02,00,53,12.70
2014,05,02,00,54,12.70
2014,05,02,00,55,12.60
2014,05,02,00,56,12.60
2014,05,02,00,57,12.60
2014,05,02,00,58,12.60
2014,05,02,00,59,12.50
2014,05,02,01,00,12.50
2014,05,02,01,01,12.50
2014,05,02,01,02,12.50
2014,05,02,01,03,12.50
2014,05,02,01,04,12.50
2014,05,02,01,05,12.40
2014,05,02,01,06,12.40
2014,05,02,01,07,12.40
2014,05,02,01,08,12.50
2014,05,02,01,09,12.50
2014,05,02,01,10,12.40
2014,05,02,01,11,12.40
2014,05,02,01,12,12.40
2014,05,02,01,13,12.40
2014,05,02,01,14,12.40
2014,05,02,01,15,12.40
2014,05,02,01,16,12.40
2014,05,02,01,17,12.40
2014,05,02,01,18,12.40
2014,05,02,01,19,12.30
2014,05,02,01,20,12.30
2014,05,02,01,21,12.30
2014,05,02,01,22,12.30
2014,05,02,01,23,12.20
2014,05,02,01,24,12.20
2014,05,02,01,25,12.20
2014,05,02,01,26,12.10
2014,05,02,01,27,12.10
2014,05,02,01,28,12.00
2014,05,02,01,29,12.00
2014,05,02,01,30,12.00
2014,05,02,01,31,12.00
2014,05,02,01,32,12.00
2014,05,02,01,33,11.90
2014,05,02,01,34,11.90
2014,05,02,01,35,11.90
2014,05,02,01,36,11.90
2014,05,02,01,37,11.90
2014,05,02,01,38,11.90
2014,05,02,01,39,11.80
2014,05,02,01,40,11.80
2014,05,02,01,41,11.80
2014,05,02,01,42,11.80
2014,05,02,01,43,11.80
2014,05,02,01,44,11.80
2014,05,02,01,45,11.80
2014,05,02,01,46,11.80
2014,05,02,01,47,11.80
2014,05,02,01,48,11.80
2014,05,02,01,49,11.80
2014,05,02,01,50,11.80
2014,05,02,01,51,11.80
2014,05,02,01,52,11.80
2014,05,02,01,53,11.90
2014,05,02,01,54,11.90
2014,05,02,01,55,11.90
2014,05,02,01,56,11.90
2014,05,02,01,57,11.90
2014,05,02,01,58,11.90
2014,05,02,01,59,11.90
2014,05,02,02,00,11.90
2014,05,02,02,01,11.80
2014,05,02,02,02,11.80
2014,05,02,02,03,11.80
2014,05,02,02,04,11.80
2014,05,02,02,05,11.80
2014,05,02,02,06,11.70
2014,05,02,02,07,11.70
2014,05,02,02,08,11.70
2014,05,02,02,09,11.70
2014,05,02,02,10,11.70
2014,05,02,02,11,11.60
2014,05,02,02,12,11.60
2014,05,02,02,13,11.60
2014,05,02,02,14,11.50
2014,05,02,02,15,11.40
2014,05,02,02,16,11.40
2014,05,02,02,17,11.40
2014,05,02,02,18,11.40
2014,05,02,02,19,11.40
2014,05,02,02,20,11.40
2014,05,02,02,21,11.30
2014,05,02,02,22,11.30
2014,05,02,02,23,11.30
2014,05,02,02,24,11.20
2014,05,02,02,25,11.20
2014,05,02,02,26,11.10
2014,05,02,02,27,11.10
2014,05,02,02,28,11.10
2014,05,02,02,29,11.10
2014,05,02,02,30,11.10
2014,05,02,02,31,11.00
2014,05,02,02,32,10.90
2014,05,02,02,33,10.90
2014,05,02,02,34,10.90
2014,05,02,02,35,10.90
2014,05,02,02,36,10.90
2014,05,02,02,37,10.90
2014,05,02,02,38,10.90
2014,05,02,02,39,10.90
2014,05,02,02,40,10.80
2014,05,02,02,41,10.80
2014,05,02,02,42,10.80
2014,05,02,02,43,10.80
2014,05,02,02,44,10.80
2014,05,02,02,45,10.70
2014,05,02,02,46,10.70
2014,05,02,02,47,10.70
2014,05,02,02,48,10.70
2014,05,02,02,49,10.70
2014,05,02,02,50,10.70
2014,05,02,02,51,10.60
2014,05,02,02,52,10.60
2014,05,02,02,53,10.60
2014,05,02,02,54,10.60
2014,05,02,02,55,10.60
2014,05,02,02,56,10.60
2014,05,02,02,57,10.60
2014,05,02,02,58,10.60
2014,05,02,02,59,10.60
2014,05,02,03,00,10.60
2014,05,02,03,01,10.60
2014,05,02,03,02,10.60
2014,05,02,03,03,10.50
2014,05,02,03,04,10.40
2014,05,02,03,05,10.40
2014,05,02,03,06,10.40
2014,05,02,03,07,10.40
2014,05,02,03,08,10.40
2014,05,02,03,09,10.40
2014,05,02,03,10,10.40
2014,05,02,03,11,10.40
2014,05,02,03,12,10.40
2014,05,02,03,13,10.40
2014,05,02,03,14,10.40
2014,05,02,03,15,10.40
2014,05,02,03,16,10.40
2014,05,02,03,17,10.40
2014,05,02,03,18,10.40
2014,05,02,03,19,10.40
2014,05,02,03,20,10.40
2014,05,02,03,21,10.40
2014,05,02,03,22,10.40
2014,05,02,03,23,10.40
2014,05,02,03,24,10.40
2014,05,02,03,25,10.40
2014,05,02,03,26,10.40
2014,05,02,03,27,10.40
2014,05,02,03,28,10.40
2014,05,02,03,29,10.40
2014,05,02,03,30,10.40
2014,05,02,03,31,10.40
2014,05,02,03,32,10.40
2014,05,02,03,33,10.40
2014,05,02,03,34,10.40
2014,05,02,03,35,10.40
2014,05,02,03,36,10.40
2014,05,02,03,37,10.40
2014,05,02,03,38,10.40
2014,05,02,03,39,10.40
2014,05,02,03,40,10.40
2014,05,02,03,41,10.40
2014,05,02,03,42,10.40
2014,05,02,03,43,10.40
2014,05,02,03,44,10.40
2014,05,02,03,45,10.40
2014,05,02,03,46,10.40
2014,05,02,03,47,10.40
2014,05,02,03,48,10.30
2014,05,02,03,49,10.30
2014,05,02,03,50,10.30
2014,05,02,03,51,10.30
2014,05,02,03,52,10.30
2014,05,02,03,53,10.30
2014,05,02,03,54,10.30
2014,05,02,03,55,10.30
2014,05,02,03,56,10.30
2014,05,02,03,57,10.20
2014,05,02,03,58,10.20
2014,05,02,03,59,10.20
2014,05,02,04,00,10.20
2014,05,02,04,01,10.20
2014,05,02,04,02,10.20
2014,05,02,04,03,10.20
2014,05,02,04,04,10.20
2014,05,02,04,05,10.20
2014,05,02,04,06,10.20
2014,05,02,04,07,10.20
2014,05,02,04,08,10.20
2014,05,02,04,09,10.20
2014,05,02,04,10,10.20
2014,05,02,04,11,10.20
2014,05,02,04,12,10.20
2014,05,02,04,13,10.20
2014,05,02,04,14,10.20
2014,05,02,04,15,10.20
2014,05,02,04,16,10.20
2014,05,02,04,17,10.20
2014,05,02,04,18,10.30
2014,05,02,04,19,10.30
2014,05,02,04,20,10.30
2014,05,02,04,21,10.30
2014,05,02,04,22,10.30
2014,05,02,04,23,10.30
2014,05,02,04,24,10.30
2014,05,02,04,25,10.30
2014,05,02,04,26,10.30
2014,05,02,04,27,10.30
2014,05,02,04,28,10.30
2014,05,02,04,29,10.30
2014,05,02,04,30,10.30
2014,05,02,04,31,10.30
2014,05,02,04,32,10.30
2014,05,02,04,33,10.30
2014,05,02,04,34,10.30
2014,05,02,04,35,10.30
2014,05,02,04,36,10.30
2014,05,02,04,37,10.30
2014,05,02,04,38,10.20
2014,05,02,04,39,10.20
2014,05,02,04,40,10.20
2014,05,02,04,41,10.20
2014,05,02,04,42,10.20
2014,05,02,04,43,10.20
2014,05,02,04,44,10.20
2014,05,02,04,45,10.20
2014,05,02,04,46,10.20
2014,05,02,04,47,10.20
2014,05,02,04,48,10.20
2014,05,02,04,49,10.20
2014,05,02,04,50,10.20
2014,05,02,04,51,10.20
2014,05,02,04,52,10.20
2014,05,02,04,53,10.10
2014,05,02,04,54,10.10
2014,05,02,04,55,10.10
2014,05,02,04,56,10.10
2014,05,02,04,57,10.10
2014,05,02,04,58,10.10
2014,05,02,04,59,10.10
2014,05,02,05,00,10.10
2014,05,02,05,01,10.10
2014,05,02,05,02,10.10
2014,05,02,05,03,10.10
2014,05,02,05,04,10.10
2014,05,02,05,05,10.00
2014,05,02,05,06,9.90
2014,05,02,05,07,9.90
2014,05,02,05,08,9.90
2014,05,02,05,09,9.90
2014,05,02,05,10,9.90
2014,05,02,05,11,9.90
2014,05,02,05,12,9.90
2014,05,02,05,13,9.90
2014,05,02,05,14,9.90
2014,05,02,05,15,9.90
2014,05,02,05,16,9.90
2014,05,02,05,17,9.90
2014,05,02,05,18,9.90
2014,05,02,05,19,9.90
2014,05,02,05,20,9.80
2014,05,02,05,21,9.80
2014,05,02,05,22,9.80
2014,05,02,05,23,9.80
2014,05,02,05,24,9.70
2014,05,02,05,25,9.70
2014,05,02,05,26,9.70
2014,05,02,05,27,9.70
2014,05,02,05,28,9.70
2014,05,02,05,29,9.70
2014,05,02,05,30,9.70
2014,05,02,05,31,9.70
2014,05,02,05,32,9.70
2014,05,02,05,33,9.70
2014,05,02,05,34,9.70
2014,05,02,05,35,9.70
2014,05,02,05,36,9.60
2014,05,02,05,37,9.60
2014,05,02,05,38,9.60
2014,05,02,05,39,9.60
2014,05,02,05,40,9.60
2014,05,02,05,41,9.60
2014,05,02,05,42,9.60
2014,05,02,05,43,9.50
2014,05,02,05,44,9.50
2014,05,02,05,45,9.50
2014,05,02,05,46,9.50
2014,05,02,05,47,9.50
2014,05,02,05,48,9.50
2014,05,02,05,49,9.50
2014,05,02,05,50,9.40
2014,05,02,05,51,9.40
2014,05,02,05,52,9.40
2014,05,02,05,53,9.40
2014,05,02,05,54,9.40
2014,05,02,05,55,9.40
2014,05,02,05,56,9.50
2014,05,02,05,57,9.50
2014,05,02,05,58,9.50
2014,05,02,05,59,9.60
2014,05,02,06,00,9.60
2014,05,02,06,01,9.70
2014,05,02,06,02,9.70
2014,05,02,06,03,9.70
2014,05,02,06,04,9.70
2014,05,02,06,05,9.80
2014,05,02,06,06,9.80
2014,05,02,06,07,9.80
2014,05,02,06,08,9.90
2014,05,02,06,09,9.90
2014,05,02,06,10,9.90
2014,05,02,06,11,9.90
2014,05,02,06,12,9.90
2014,05,02,06,13,9.90
2014,05,02,06,14,9.90
2014,05,02,06,15,9.90
2014,05,02,06,16,9.90
2014,05,02,06,17,9.90
2014,05,02,06,18,9.90
2014,05,02,06,19,9.90
2014,05,02,06,20,9.90
2014,05,02,06,21,9.90
2014,05,02,06,22,9.90
2014,05,02,06,23,9.90
2014,05,02,06,24,9.90
2014,05,02,06,25,9.90
2014,05,02,06,26,9.90
2014,05,02,06,27,10.00
2014,05,02,06,28,10.10
2014,05,02,06,29,10.10
2014,05,02,06,30,10.10
2014,05,02,06,31,10.10
2014,05,02,06,32,10.10
2014,05,02,06,33,10.10
2014,05,02,06,34,10.10
2014,05,02,06,35,10.10
2014,05,02,06,36,10.10
2014,05,02,06,37,10.10
2014,05,02,06,38,10.10
2014,05,02,06,39,10.10
2014,05,02,06,40,10.10
2014,05,02,06,41,10.10
2014,05,02,06,42,10.20
2014,05,02,06,43,10.20
2014,05,02,06,44,10.20
2014,05,02,06,45,10.20
2014,05,02,06,46,10.20
2014,05,02,06,47,10.30
2014,05,02,06,48,10.30
2014,05,02,06,49,10.30
2014,05,02,06,50,10.30
2014,05,02,06,51,10.40
2014,05,02,06,52,10.40
2014,05,02,06,53,10.40
2014,05,02,06,54,10.40
2014,05,02,06,55,10.40
2014,05,02,06,56,10.50
2014,05,02,06,57,10.60
2014,05,02,06,58,10.60
2014,05,02,06,59,10.60
2014,05,02,07,00,10.60
2014,05,02,07,01,10.70
2014,05,02,07,02,10.70
2014,05,02,07,03,10.70
2014,05,02,07,04,10.80
2014,05,02,07,05,10.80
2014,05,02,07,06,10.90
2014,05,02,07,07,10.90
2014,05,02,07,08,10.90
2014,05,02,07,09,11.00
2014,05,02,07,10,11.10
2014,05,02,07,11,11.10
2014,05,02,07,12,11.10
2014,05,02,07,13,11.20
2014,05,02,07,14,11.20
2014,05,02,07,15,11.20
2014,05,02,07,16,11.30
2014,05,02,07,17,11.30
2014,05,02,07,18,11.40
2014,05,02,07,19,11.40
2014,05,02,07,20,11.40
2014,05,02,07,21,11.50
2014,05,02,07,22,11.60
2014,05,02,07,23,11.60
2014,05,02,07,24,11.60
2014,05,02,07,25,11.70
2014,05,02,07,26,11.70
2014,05,02,07,27,11.80
2014,05,02,07,28,11.80
2014,05,02,07,29,11.80
2014,05,02,07,30,11.90
2014,05,02,07,31,12.00
2014,05,02,07,32,12.10
2014,05,02,07,33,12.20
2014,05,02,07,34,12.30
2014,05,02,07,35,12.50
2014,05,02,07,36,12.60
2014,05,02,07,37,12.60
2014,05,02,07,38,12.60
2014,05,02,07,39,12.60
2014,05,02,07,40,12.60
2014,05,02,07,41,12.60
2014,05,02,07,42,12.60
2014,05,02,07,43,12.50
2014,05,02,07,44,12.30
2014,05,02,07,45,12.20
2014,05,02,07,46,12.10
2014,05,02,07,47,12.00
2014,05,02,07,48,12.00
2014,05,02,07,49,11.90
2014,05,02,07,50,11.80
2014,05,02,07,51,11.80
2014,05,02,07,52,11.70
2014,05,02,07,53,11.70
2014,05,02,07,54,11.70
2014,05,02,07,55,11.80
2014,05,02,07,56,11.80
2014,05,02,07,57,11.80
2014,05,02,07,58,11.80
2014,05,02,07,59,11.80
2014,05,02,08,00,11.80
2014,05,02,08,01,11.80
2014,05,02,08,02,11.90
2014,05,02,08,03,11.90
2014,05,02,08,04,12.00
2014,05,02,08,05,12.00
2014,05,02,08,06,12.10
2014,05,02,08,07,12.10
2014,05,02,08,08,12.20
2014,05,02,08,09,12.30
2014,05,02,08,10,12.30
2014,05,02,08,11,12.40
2014,05,02,08,12,12.50
2014,05,02,08,13,12.60
2014,05,02,08,14,12.60
2014,05,02,08,15,12.70
2014,05,02,08,16,12.70
2014,05,02,08,17,12.80
2014,05,02,08,18,12.80
2014,05,02,08,19,13.00
2014,05,02,08,20,13.10
2014,05,02,08,21,13.10
2014,05,02,08,22,13.30
2014,05,02,08,23,13.40
2014,05,02,08,24,13.50
2014,05,02,08,25,13.60
2014,05,02,08,26,13.60
2014,05,02,08,27,13.70
2014,05,02,08,28,13.80
2014,05,02,08,29,13.80
2014,05,02,08,30,13.90
2014,05,02,08,31,13.90
2014,05,02,08,32,13.90
2014,05,02,08,33,13.90
2014,05,02,08,34,13.90
2014,05,02,08,35,13.90
2014,05,02,08,36,13.90
2014,05,02,08,37,13.90
2014,05,02,08,38,14.00
2014,05,02,08,39,14.10
2014,05,02,08,40,14.10
2014,05,02,08,41,14.20
2014,05,02,08,42,14.20
2014,05,02,08,43,14.30
2014,05,02,08,44,14.40
2014,05,02,08,45,14.50
2014,05,02,08,46,14.50
2014,05,02,08,47,14.60
2014,05,02,08,48,14.60
2014,05,02,08,49,14.60
2014,05,02,08,50,14.70
2014,05,02,08,51,14.80
2014,05,02,08,52,14.80
2014,05,02,08,53,14.80
2014,05,02,08,54,14.70
2014,05,02,08,55,14.50
2014,05,02,08,56,14.40
2014,05,02,08,57,14.20
2014,05,02,08,58,14.10
2014,05,02,08,59,14.10
2014,05,02,09,00,14.00
2014,05,02,09,01,13.80
2014,05,02,09,02,13.70
2014,05,02,09,03,13.60
2014,05,02,09,04,13.50
2014,05,02,09,05,13.50
2014,05,02,09,06,13.50
2014,05,02,09,07,13.40
2014,05,02,09,08,13.30
2014,05,02,09,09,13.30
2014,05,02,09,10,13.30
2014,05,02,09,11,13.30
2014,05,02,09,12,13.20
2014,05,02,09,13,13.30
2014,05,02,09,14,13.30
2014,05,02,09,15,13.20
2014,05,02,09,16,13.20
2014,05,02,09,17,13.20
2014,05,02,09,18,13.20
2014,05,02,09,19,13.20
2014,05,02,09,20,13.30
2014,05,02,09,21,13.30
2014,05,02,09,22,13.40
2014,05,02,09,23,13.40
2014,05,02,09,24,13.50
2014,05,02,09,25,13.50
2014,05,02,09,26,13.60
2014,05,02,09,27,13.60
2014,05,02,09,28,13.60
2014,05,02,09,29,13.60
2014,05,02,09,30,13.60
2014,05,02,09,31,13.60
2014,05,02,09,32,13.60
2014,05,02,09,33,13.50
2014,05,02,09,34,13.50
2014,05,02,09,35,13.30
2014,05,02,09,36,13.20
2014,05,02,09,37,13.10
2014,05,02,09,38,13.10
2014,05,02,09,39,13.00
2014,05,02,09,40,13.00
2014,05,02,09,41,13.10
2014,05,02,09,42,13.10
2014,05,02,09,43,13.10
2014,05,02,09,44,13.10
2014,05,02,09,45,13.10
2014,05,02,09,46,13.20
2014,05,02,09,47,13.20
2014,05,02,09,48,13.30
2014,05,02,09,49,13.50
2014,05,02,09,50,13.60
2014,05,02,09,51,13.60
2014,05,02,09,52,13.70
2014,05,02,09,53,13.70
2014,05,02,09,54,13.80
2014,05,02,09,55,13.90
2014,05,02,09,56,13.90
2014,05,02,09,57,14.00
2014,05,02,09,58,14.10
2014,05,02,09,59,14.20
2014,05,02,10,00,14.20
2014,05,02,10,01,14.40
2014,05,02,10,02,14.50
2014,05,02,10,03,14.50
2014,05,02,10,04,14.60
2014,05,02,10,05,14.70
2014,05,02,10,06,14.80
2014,05,02,10,07,14.70
2014,05,02,10,08,14.60
2014,05,02,10,09,14.50
2014,05,02,10,10,14.50
2014,05,02,10,11,14.60
2014,05,02,10,12,14.60
2014,05,02,10,13,14.70
2014,05,02,10,14,14.70
2014,05,02,10,15,14.60
2014,05,02,10,16,14.60
2014,05,02,10,17,14.70
2014,05,02,10,18,14.70
2014,05,02,10,19,14.70
2014,05,02,10,20,14.60
2014,05,02,10,21,14.50
2014,05,02,10,22,14.40
2014,05,02,10,23,14.30
2014,05,02,10,24,14.20
2014,05,02,10,25,14.10
2014,05,02,10,26,14.00
2014,05,02,10,27,14.00
2014,05,02,10,28,13.90
2014,05,02,10,29,13.80
2014,05,02,10,30,13.70
2014,05,02,10,31,13.60
2014,05,02,10,32,13.50
2014,05,02,10,33,13.50
2014,05,02,10,34,13.50
2014,05,02,10,35,13.50
2014,05,02,10,36,13.50
2014,05,02,10,37,13.60
2014,05,02,10,38,13.60
2014,05,02,10,39,13.70
2014,05,02,10,40,13.70
2014,05,02,10,41,13.70
2014,05,02,10,42,13.70
2014,05,02,10,43,13.80
2014,05,02,10,44,13.90
2014,05,02,10,45,14.00
2014,05,02,10,46,14.00
2014,05,02,10,47,14.10
2014,05,02,10,48,14.00
2014,05,02,10,49,14.00
2014,05,02,10,50,13.90
2014,05,02,10,51,13.80
2014,05,02,10,52,13.80
2014,05,02,10,53,13.90
2014,05,02,10,54,14.00
2014,05,02,10,55,14.00
2014,05,02,10,56,14.10
2014,05,02,10,57,14.20
2014,05,02,10,58,14.20
2014,05,02,10,59,14.30
2014,05,02,11,00,14.30
2014,05,02,11,01,14.30
2014,05,02,11,02,14.20
2014,05,02,11,03,14.00
2014,05,02,11,04,13.80
2014,05,02,11,05,13.70
2014,05,02,11,06,13.50
2014,05,02,11,07,13.30
2014,05,02,11,08,13.30
2014,05,02,11,09,13.30
2014,05,02,11,10,13.30
2014,05,02,11,11,13.30
2014,05,02,11,12,13.30
2014,05,02,11,13,13.30
2014,05,02,11,14,13.40
2014,05,02,11,15,13.40
2014,05,02,11,16,13.40
2014,05,02,11,17,13.50
2014,05,02,11,18,13.50
2014,05,02,11,19,13.60
2014,05,02,11,20,13.60
2014,05,02,11,21,13.70
2014,05,02,11,22,13.70
2014,05,02,11,23,13.70
2014,05,02,11,24,13.70
2014,05,02,11,25,13.80
2014,05,02,11,26,13.90
2014,05,02,11,27,13.90
2014,05,02,11,28,13.90
2014,05,02,11,29,13.90
2014,05,02,11,30,13.80
2014,05,02,11,31,13.70
2014,05,02,11,32,13.70
2014,05,02,11,33,13.60
2014,05,02,11,34,13.60
2014,05,02,11,35,13.60
2014,05,02,11,36,13.60
2014,05,02,11,37,13.60
2014,05,02,11,38,13.60
2014,05,02,11,39,13.60
2014,05,02,11,40,13.70
2014,05,02,11,41,13.70
2014,05,02,11,42,13.70
2014,05,02,11,43,13.80
2014,05,02,11,44,13.90
2014,05,02,11,45,14.00
2014,05,02,11,46,14.10
2014,05,02,11,47,14.20
2014,05,02,11,48,14.20
2014,05,02,11,49,14.40
2014,05,02,11,50,14.50
2014,05,02,11,51,14.70
2014,05,02,11,52,14.60
2014,05,02,11,53,14.50
2014,05,02,11,54,14.20
2014,05,02,11,55,14.00
2014,05,02,11,56,13.80
2014,05,02,11,57,13.70
2014,05,02,11,58,13.70
2014,05,02,11,59,13.70
2014,05,02,12,00,13.70
2014,05,02,12,01,13.70
2014,05,02,12,02,13.80
2014,05,02,12,03,13.90
2014,05,02,12,04,14.00
2014,05,02,12,05,14.10
2014,05,02,12,06,14.20
2014,05,02,12,07,14.30
2014,05,02,12,08,14.40
2014,05,02,12,09,14.50
2014,05,02,12,10,14.50
2014,05,02,12,11,14.60
2014,05,02,12,12,14.60
2014,05,02,12,13,14.70
2014,05,02,12,14,14.80
2014,05,02,12,15,14.90
2014,05,02,12,16,14.90
2014,05,02,12,17,15.00
2014,05,02,12,18,15.00
2014,05,02,12,19,15.10
2014,05,02,12,20,15.20
2014,05,02,12,21,15.20
2014,05,02,12,22,15.30
2014,05,02,12,23,15.30
2014,05,02,12,24,15.30
2014,05,02,12,25,15.30
2014,05,02,12,26,15.40
2014,05,02,12,27,15.50
2014,05,02,12,28,15.50
2014,05,02,12,29,15.50
2014,05,02,12,30,15.60
2014,05,02,12,31,15.60
2014,05,02,12,32,15.60
2014,05,02,12,33,15.70
2014,05,02,12,34,15.70
2014,05,02,12,35,15.80
2014,05,02,12,36,15.80
2014,05,02,12,37,15.90
2014,05,02,12,38,16.00
2014,05,02,12,39,16.10
2014,05,02,12,40,16.10
2014,05,02,12,41,16.10
2014,05,02,12,42,16.10
2014,05,02,12,43,16.10
2014,05,02,12,44,16.10
2014,05,02,12,45,16.20
2014,05,02,12,46,16.30
2014,05,02,12,47,16.30
2014,05,02,12,48,16.30
2014,05,02,12,49,16.20
2014,05,02,12,50,16.20
2014,05,02,12,51,16.20
2014,05,02,12,52,16.30
2014,05,02,12,53,16.40
2014,05,02,12,54,16.50
2014,05,02,12,55,16.60
2014,05,02,12,56,16.70
2014,05,02,12,57,16.80
2014,05,02,12,58,17.00
2014,05,02,12,59,17.10
2014,05,02,13,00,17.20
2014,05,02,13,01,17.30
2014,05,02,13,02,17.50
2014,05,02,13,03,17.60
2014,05,02,13,04,17.80
2014,05,02,13,05,17.90
2014,05,02,13,06,18.00
2014,05,02,13,07,18.20
2014,05,02,13,08,18.20
2014,05,02,13,09,18.20
2014,05,02,13,10,18.20
2014,05,02,13,11,18.30
2014,05,02,13,12,18.30
2014,05,02,13,13,18.40
2014,05,02,13,14,18.40
2014,05,02,13,15,18.30
2014,05,02,13,16,18.20
2014,05,02,13,17,18.10
2014,05,02,13,18,17.90
2014,05,02,13,19,17.90
2014,05,02,13,20,17.80
2014,05,02,13,21,17.80
2014,05,02,13,22,17.80
2014,05,02,13,23,17.80
2014,05,02,13,24,17.80
2014,05,02,13,25,17.70
2014,05,02,13,26,17.70
2014,05,02,13,27,17.60
2014,05,02,13,28,17.50
2014,05,02,13,29,17.40
2014,05,02,13,30,17.30
2014,05,02,13,31,17.10
2014,05,02,13,32,17.00
2014,05,02,13,33,16.90
2014,05,02,13,34,16.90
2014,05,02,13,35,16.80
2014,05,02,13,36,16.80
2014,05,02,13,37,16.80
2014,05,02,13,38,16.90
2014,05,02,13,39,17.00
2014,05,02,13,40,17.00
2014,05,02,13,41,17.10
2014,05,02,13,42,17.20
2014,05,02,13,43,17.30
2014,05,02,13,44,17.40
2014,05,02,13,45,17.50
2014,05,02,13,46,17.70
2014,05,02,13,47,17.70
2014,05,02,13,48,17.80
2014,05,02,13,49,17.90
2014,05,02,13,50,18.00
2014,05,02,13,51,18.10
2014,05,02,13,52,18.20
2014,05,02,13,53,18.20
2014,05,02,13,54,18.00
2014,05,02,13,55,17.90
2014,05,02,13,56,17.70
2014,05,02,13,57,17.60
2014,05,02,13,58,17.50
2014,05,02,13,59,17.40
2014,05,02,14,00,17.30
2014,05,02,14,01,17.30
2014,05,02,14,02,17.30
2014,05,02,14,03,17.30
2014,05,02,14,04,17.40
2014,05,02,14,05,17.50
2014,05,02,14,06,17.60
2014,05,02,14,07,17.70
2014,05,02,14,08,17.70
2014,05,02,14,09,17.70
2014,05,02,14,10,17.80
2014,05,02,14,11,17.90
2014,05,02,14,12,17.90
2014,05,02,14,13,17.90
2014,05,02,14,14,17.90
2014,05,02,14,15,17.90
2014,05,02,14,16,18.00
2014,05,02,14,17,18.10
2014,05,02,14,18,18.20
2014,05,02,14,19,18.20
2014,05,02,14,20,18.30
2014,05,02,14,21,18.40
2014,05,02,14,22,18.40
2014,05,02,14,23,18.00
2014,05,02,14,24,17.60
2014,05,02,14,25,17.20
2014,05,02,14,26,16.80
2014,05,02,14,27,16.50
2014,05,02,14,28,16.30
2014,05,02,14,29,16.10
2014,05,02,14,30,16.00
2014,05,02,14,31,15.90
2014,05,02,14,32,15.80
2014,05,02,14,33,15.80
2014,05,02,14,34,15.90
2014,05,02,14,35,15.90
2014,05,02,14,36,16.00
2014,05,02,14,37,16.10
2014,05,02,14,38,16.10
2014,05,02,14,39,16.10
2014,05,02,14,40,16.20
2014,05,02,14,41,16.30
2014,05,02,14,42,16.30
2014,05,02,14,43,16.30
2014,05,02,14,44,16.30
2014,05,02,14,45,16.40
2014,05,02,14,46,16.50
2014,05,02,14,47,16.60
2014,05,02,14,48,16.70
2014,05,02,14,49,16.80
2014,05,02,14,50,16.90
2014,05,02,14,51,17.00
2014,05,02,14,52,17.00
2014,05,02,14,53,17.10
2014,05,02,14,54,17.30
2014,05,02,14,55,17.30
2014,05,02,14,56,17.30
2014,05,02,14,57,17.30
2014,05,02,14,58,17.40
2014,05,02,14,59,17.40
2014,05,02,15,00,17.40
2014,05,02,15,01,17.50
2014,05,02,15,02,17.70
2014,05,02,15,03,17.70
2014,05,02,15,04,17.80
2014,05,02,15,05,17.90
2014,05,02,15,06,18.10
2014,05,02,15,07,18.20
2014,05,02,15,08,18.40
2014,05,02,15,09,18.50
2014,05,02,15,10,18.60
2014,05,02,15,11,18.70
2014,05,02,15,12,18.90
2014,05,02,15,13,19.00
2014,05,02,15,14,19.10
2014,05,02,15,15,19.10
2014,05,02,15,16,19.20
2014,05,02,15,17,19.30
2014,05,02,15,18,19.40
2014,05,02,15,19,19.40
2014,05,02,15,20,19.50
2014,05,02,15,21,19.60
2014,05,02,15,22,19.60
2014,05,02,15,23,19.70
2014,05,02,15,24,19.70
2014,05,02,15,25,19.80
2014,05,02,15,26,19.80
2014,05,02,15,27,19.90
2014,05,02,15,28,19.90
2014,05,02,15,29,19.90
2014,05,02,15,30,19.90
2014,05,02,15,31,19.80
2014,05,02,15,32,19.80
2014,05,02,15,33,19.80
2014,05,02,15,34,19.80
2014,05,02,15,35,19.80
2014,05,02,15,36,19.90
2014,05,02,15,37,19.90
2014,05,02,15,38,19.90
2014,05,02,15,39,19.90
2014,05,02,15,40,19.90
2014,05,02,15,41,19.90
2014,05,02,15,42,19.90
2014,05,02,15,43,20.00
2014,05,02,15,44,20.10
2014,05,02,15,45,20.20
2014,05,02,15,46,20.20
2014,05,02,15,47,20.20
2014,05,02,15,48,20.30
2014,05,02,15,49,20.40
2014,05,02,15,50,20.40
2014,05,02,15,51,20.50
2014,05,02,15,52,20.50
2014,05,02,15,53,20.50
2014,05,02,15,54,20.60
2014,05,02,15,55,20.50
2014,05,02,15,56,20.50
2014,05,02,15,57,20.50
2014,05,02,15,58,20.50
2014,05,02,15,59,20.60
2014,05,02,16,00,20.60
2014,05,02,16,01,20.70
2014,05,02,16,02,20.70
2014,05,02,16,03,20.80
2014,05,02,16,04,20.90
2014,05,02,16,05,20.90
2014,05,02,16,06,21.00
2014,05,02,16,07,21.10
2014,05,02,16,08,21.10
2014,05,02,16,09,21.10
2014,05,02,16,10,21.00
2014,05,02,16,11,21.00
2014,05,02,16,12,21.00
2014,05,02,16,13,21.10
2014,05,02,16,14,21.10
2014,05,02,16,15,21.10
2014,05,02,16,16,21.10
2014,05,02,16,17,21.00
2014,05,02,16,18,21.00
2014,05,02,16,19,20.90
2014,05,02,16,20,20.90
2014,05,02,16,21,20.80
2014,05,02,16,22,20.80
2014,05,02,16,23,20.90
2014,05,02,16,24,20.90
2014,05,02,16,25,20.80
2014,05,02,16,26,20.90
2014,05,02,16,27,20.90
2014,05,02,16,28,20.90
2014,05,02,16,29,20.90
2014,05,02,16,30,20.90
2014,05,02,16,31,20.90
2014,05,02,16,32,20.90
2014,05,02,16,33,20.90
2014,05,02,16,34,20.90
2014,05,02,16,35,21.00
2014,05,02,16,36,21.00
2014,05,02,16,37,21.00
2014,05,02,16,38,21.00
2014,05,02,16,39,20.80
2014,05,02,16,40,20.70
2014,05,02,16,41,20.60
2014,05,02,16,42,20.60
2014,05,02,16,43,20.60
2014,05,02,16,44,20.70
2014,05,02,16,45,20.60
2014,05,02,16,46,20.40
2014,05,02,16,47,20.30
2014,05,02,16,48,20.20
2014,05,02,16,49,20.20
2014,05,02,16,50,20.30
2014,05,02,16,51,20.30
2014,05,02,16,52,20.40
2014,05,02,16,53,20.50
2014,05,02,16,54,20.50
2014,05,02,16,55,20.50
2014,05,02,16,56,20.50
2014,05,02,16,57,20.60
2014,05,02,16,58,20.70
2014,05,02,16,59,20.70
2014,05,02,17,00,20.70
2014,05,02,17,01,20.80
2014,05,02,17,02,20.60
2014,05,02,17,03,20.40
2014,05,02,17,04,20.20
2014,05,02,17,05,20.00
2014,05,02,17,06,19.90
2014,05,02,17,07,19.70
2014,05,02,17,08,19.60
2014,05,02,17,09,19.50
2014,05,02,17,10,19.50
2014,05,02,17,11,19.50
2014,05,02,17,12,19.40
2014,05,02,17,13,19.40
2014,05,02,17,14,19.40
2014,05,02,17,15,19.30
2014,05,02,17,16,19.30
2014,05,02,17,17,19.30
2014,05,02,17,18,19.20
2014,05,02,17,19,19.20
2014,05,02,17,20,19.20
2014,05,02,17,21,19.20
2014,05,02,17,22,19.20